TimePST,TemperatureF,Dew PointF,Humidity,Sea Level PressureIn,VisibilityMPH,Wind Direction,Wind SpeedMPH,Gust SpeedMPH,PrecipitationIn,Events,Conditions,WindDirDegrees,DateUTC
12:55 AM,46.9,32.0,56,29.84,10.0,SSW,21.9,32.2,0.00,,Mostly Cloudy,200,2012-11-18 08:55:00
1:55 AM,48.0,33.1,56,29.87,10.0,South,19.6,34.5,N/A,,Overcast,180,2012-11-18 09:55:00
2:55 AM,48.0,33.1,56,29.85,10.0,SSE,25.3,39.1,0.00,,Overcast,160,2012-11-18 10:55:00
3:31 AM,46.4,33.8,62,29.88,10.0,South,34.5,42.6,N/A,,Squalls,180,2012-11-18 11:31:00
4:55 AM,46.9,34.0,61,29.86,10.0,Variable,4.6,-,0.00,,Scattered Clouds,0,2012-11-18 12:55:00
5:55 AM,45.0,35.1,68,29.87,10.0,NE,6.9,-,N/A,,Mostly Cloudy,40,2012-11-18 13:55:00
6:55 AM,44.1,35.1,71,29.90,10.0,NE,6.9,-,0.00,Rain,Light Rain,40,2012-11-18 14:55:00
7:55 AM,45.0,35.1,68,29.91,10.0,ENE,6.9,-,0.00,,Overcast,70,2012-11-18 15:55:00
8:55 AM,46.9,37.0,68,29.94,10.0,Calm,Calm,-,N/A,,Mostly Cloudy,0,2012-11-18 16:55:00
9:55 AM,50.0,34.0,54,29.94,10.0,Calm,Calm,-,N/A,,Mostly Cloudy,0,2012-11-18 17:55:00
10:55 AM,53.1,33.1,47,29.95,10.0,Variable,4.6,-,N/A,,Mostly Cloudy,0,2012-11-18 18:55:00
11:55 AM,54.0,33.1,45,29.93,10.0,South,13.8,18.4,N/A,,Mostly Cloudy,180,2012-11-18 19:55:00
12:55 PM,53.1,30.9,43,29.94,10.0,South,12.7,-,N/A,,Mostly Cloudy,180,2012-11-18 20:55:00
1:55 PM,54.0,30.9,41,29.92,10.0,South,20.7,29.9,N/A,,Mostly Cloudy,190,2012-11-18 21:55:00
2:55 PM,53.1,30.9,43,29.94,10.0,South,18.4,24.2,N/A,,Mostly Cloudy,190,2012-11-18 22:55:00
3:55 PM,52.0,30.0,43,29.96,10.0,Variable,4.6,-,N/A,,Mostly Cloudy,0,2012-11-18 23:55:00
4:55 PM,48.9,30.9,50,29.98,10.0,West,6.9,-,N/A,,Overcast,260,2012-11-19 00:55:00
5:55 PM,46.9,32.0,56,30.03,10.0,NW,6.9,-,N/A,,Overcast,310,2012-11-19 01:55:00
6:55 PM,46.0,33.1,61,30.04,10.0,WNW,8.1,20.7,N/A,,Mostly Cloudy,300,2012-11-19 02:55:00
7:55 PM,45.0,32.0,60,30.05,10.0,West,5.8,-,N/A,,Mostly Cloudy,260,2012-11-19 03:55:00
8:55 PM,45.0,30.9,58,30.07,10.0,Calm,Calm,-,N/A,,Mostly Cloudy,0,2012-11-19 04:55:00
9:55 PM,45.0,30.9,58,30.08,10.0,SW,5.8,-,N/A,,Mostly Cloudy,220,2012-11-19 05:55:00
10:55 PM,44.1,30.9,60,30.09,10.0,Calm,Calm,-,N/A,,Mostly Cloudy,0,2012-11-19 06:55:00
11:55 PM,45.0,30.0,56,30.08,10.0,WNW,4.6,-,N/A,,Scattered Clouds,290,2012-11-19 07:55:00